Flag for Germany Weather past 2 weeks in Neuburg an der Donau, Bavaria, Germany

Now
63 °F

Mild.


Feels Like: 63 °F
Forecast: 53 / 63 °F
Wind: 7 mph from West

Location: Neuburg / Donau

Current Time: Aug 30, 2014 at 9:03:57 AM

Latest Report: Aug 30, 2014 at 8:20 AM


Visibility: N/A

Pressure: 30.09 "Hg

Humidity: 88%

Dew point: 59 °F

Location of Neuburg an der DonauLocation

Historic Weather in Neuburg an der Donau — Graph

°F

Neuburg an der Donau temperature yesterday

Maximum temperature yesterday: 70 °F (at 4:20 PM)
Minimum temperature yesterday: 52 °F (at 5:20 AM)
Average temperature yesterday: 62 °F

Past Weeks' High & Low Weather Summary

 TemperatureHumidityPressure
High72 °F (Aug 17, 4:20 PM)100% (Aug 19, 5:20 AM)30.15 "Hg (Aug 19, 5:20 AM)
Low43 °F (Aug 25, 3:20 AM)35% (Aug 21, 5:20 PM)29.71 "Hg (Aug 26, 7:20 AM)
Average59 °F75%30.00 "Hg
* Reported Aug 15 7:20 AM — Aug 30 7:20 AM, Neuburg an der Donau, Weather by CustomWeather, © 2014

Note: Actual official high and low records may vary slightly from our data, if they occured in-between our weather recording intervals... More about our weather records

Advertising

Neuburg an der Donau weather history for previous 24 hours

 ConditionsComfort  
Time TempWeatherWind HumidityBarometerVisibility
7:20 AM
Aug 30
61 °FCool.6 mph94%30.09 "HgN/A
6:20 AM63 °FMild.3 mph88%30.09 "HgN/A
5:20 AM63 °FMild.3 mph94%30.07 "HgN/A
4:20 AM63 °FMild.5 mph94%30.07 "HgN/A
3:20 AM63 °FMild.1 mph94%30.07 "HgN/A
2:20 AM63 °FMild.2 mph94%30.07 "HgN/A
1:20 AM63 °FMild.2 mph94%30.07 "HgN/A
12:20 AM63 °FMild.1 mph94%30.07 "HgN/A
11:20 PM
Aug 29
64 °FMild.3 mph88%30.07 "HgN/A
10:20 PM64 °FMild.3 mph88%30.07 "HgN/A
8:20 PM66 °FMild.3 mph83%30.04 "HgN/A
7:20 PM68 °FMild.2 mph78%30.04 "HgN/A
6:20 PM70 °FMild.5 mph73%30.04 "HgN/A
5:20 PM70 °FMild.5 mph69%30.04 "HgN/A
4:20 PM70 °FMild.5 mph73%30.07 "HgN/A
3:20 PM68 °FMild.5 mph78%30.07 "HgN/A
2:20 PM64 °FMild.3 mph88%30.09 "HgN/A
1:20 PM63 °FMild.2 mph94%30.09 "HgN/A
12:20 PM63 °FMild.7 mph88%30.09 "HgN/A
11:20 AM64 °FMild.2 mph83%30.07 "HgN/A
10:20 AM64 °FMild.1 mph83%30.07 "HgN/A
9:20 AM63 °FMild.5 mph83%30.07 "HgN/A
Weather by CustomWeather, © 2014

See weather overviewHow to use our weather pages